Location: Boiro
(42.6475°N, 8.8834°W)
Time: 13:18:37
(UTC+01:00)

Envisat - Pass Details

Date: 25 October 2021
Orbit: 764 x 766 km, 98.2° (Epoch: 07 December)

Event Time Altitude Azimuth Distance (km) Brightness Sun altitude
Rises 20:17:20 0° 216° (SW) 3,220 7.0 -7.9°
Reaches altitude 10° 20:20:58 10° 244° (WSW) 2,301 6.9 -8.6°
Maximum altitude 20:23:17 13° 271° (W) 2,097 6.7 -9.0°
Drops below altitude 10° 20:25:36 10° 299° (WNW) 2,309 6.4 -9.4°
Sets 20:29:17 0° 326° (NNW) 3,242 6.6 -10.1°
